Hailey, ID

10:55 PM MDT on September 24, 2017 (GMT -0600)
Friedman Memorial

Weather History for KSUN - December, 2011

Change the Weather History Date:

Friday, December 30, 2011

  Actual Average Record
Temperature  
Mean Temperature 36 °F -  
Max Temperature 41 °F 33 °F 57 °F (1998)
Min Temperature 30 °F 14 °F -2 °F (2014)
Degree Days  
Heating Degree Days 30    
Moisture  
Dew Point 31 °F    
Average Humidity 92    
Maximum Humidity 100    
Minimum Humidity 80    
Precipitation  
Precipitation 0.00 in - - ()
Sea Level Pressure  
Sea Level Pressure 29.86 in    
Wind  
Wind Speed 7 mph (WNW)    
Max Wind Speed 14 mph    
Max Gust Speed 24 mph    
Visibility 5 miles    
Events Rain , Snow    
Averages and records for this station are not official NWS values.
T = Trace of Precipitation, MM = Missing Value Source: NWS Daily Summary

Daily Weather History Graph

Daily Weather History Graph

Search for Another Location

Airport or City:

Trip Planner

Search our weather history database for the weather conditions in past years. The results will help you decide how hot, cold, wet, or windy it might be!

Date:

Astronomy

Dec. 30, 2011 Rise Set
Actual Time 8:09 AM MST 5:09 PM MST
Civil Twilight 7:37 AM MST 5:42 PM MST
Nautical Twilight 7:01 AM MST 6:18 PM MST
Astronomical Twilight 6:26 AM MST 6:53 PM MST
Moon 11:19 AM MST (12/30) No Moon Set
Length of Visible Light 10h 04m
Length of Day
8h 59m
Waxing Crescent, 36% of the Moon is Illuminated
Dec 30
Waxing Crescent
Dec 31
First Quarter
Jan 9
Full
Jan 16
Last Quarter
Jan 23
New

Hourly Weather History & Observations

Time (MST) Temp. Windchill Dew Point Humidity Pressure Visibility Wind Dir Wind Speed Gust Speed Precip Events Conditions
12:15 AM 30.2 °F 23.4 °F 30.2 °F 100% 30.02 in 1.8 mi NNW 6.9 mph - N/A Snow Light Snow
12:35 AM 30.2 °F 23.4 °F 30.2 °F 100% 30.02 in 1.0 mi NNW 6.9 mph - N/A Snow Light Snow
12:55 AM 30.2 °F 23.4 °F 30.2 °F 100% 30.02 in 1.0 mi NNW 6.9 mph - N/A Snow Light Snow
1:15 AM 30.2 °F 22.6 °F 30.2 °F 100% 30.00 in 1.2 mi NW 8.1 mph - N/A Snow Light Snow
1:55 AM 30.2 °F 24.3 °F 30.2 °F 100% 30.00 in 1.8 mi NNW 5.8 mph - N/A Snow Light Snow
2:15 AM 30.2 °F 24.3 °F 30.2 °F 100% 29.99 in 0.8 mi NNW 5.8 mph - N/A Snow Snow
2:55 AM 30.2 °F 22.6 °F 30.2 °F 100% 29.99 in 1.0 mi NW 8.1 mph - N/A Snow Light Snow
3:15 AM 30.2 °F 23.4 °F 30.2 °F 100% 29.98 in 0.5 mi NNW 6.9 mph - N/A Snow Snow
3:35 AM 30.2 °F 23.4 °F 30.2 °F 100% 29.97 in 0.8 mi NW 6.9 mph - N/A Snow Light Snow
3:55 AM 30.2 °F 23.4 °F 30.2 °F 100% 29.96 in 1.0 mi NNW 6.9 mph - N/A Snow Light Snow
4:15 AM 30.2 °F 23.4 °F 30.2 °F 100% 29.95 in 1.5 mi NW 6.9 mph - N/A Snow Light Snow
4:35 AM 30.2 °F 23.4 °F 30.2 °F 100% 29.94 in 2.0 mi NNW 6.9 mph - N/A Snow Light Snow
4:55 AM 32.0 °F 27.5 °F 30.2 °F 93% 29.94 in 1.5 mi North 4.6 mph - N/A Snow Light Snow
5:15 AM 32.0 °F 24.8 °F 30.2 °F 93% 29.93 in 1.5 mi NNW 8.1 mph - N/A Snow Light Snow
5:35 AM 32.0 °F 24.8 °F 30.2 °F 93% 29.92 in 4.0 mi NW 8.1 mph - N/A Snow Light Snow
5:55 AM 32.0 °F 24.2 °F 32.0 °F 100% 29.91 in 5.0 mi NW 9.2 mph - N/A   Overcast
6:50 AM 32.0 °F 25.6 °F 30.2 °F 93% 29.91 in 7.0 mi WNW 6.9 mph - N/A Snow Light Snow
7:47 AM 32.0 °F 25.6 °F 30.2 °F 93% 29.90 in 7.0 mi NW 6.9 mph - N/A   Overcast
9:47 AM 33.8 °F - 32.0 °F 93% 29.91 in 7.0 mi Calm Calm - N/A   Overcast
10:47 AM 33.8 °F - 32.0 °F 93% 29.90 in 7.0 mi Calm Calm - N/A   Overcast
11:47 AM 37.4 °F 32.8 °F 35.6 °F 93% 29.88 in 7.0 mi SE 5.8 mph - N/A Rain Rain
12:47 PM 41.0 °F 38.0 °F 35.6 °F 81% 29.84 in 7.0 mi SSE 4.6 mph - N/A Rain Light Rain
1:47 PM 41.0 °F 35.2 °F 35.6 °F 81% 29.79 in 7.0 mi SSW 9.2 mph 21.9 mph N/A Rain Light Rain
2:47 PM 41.0 °F 36.4 °F 35.6 °F 81% 29.78 in 5.0 mi SSE 6.9 mph 18.4 mph N/A   Drizzle
3:47 PM 39.2 °F 35.0 °F 35.6 °F 87% 29.76 in 7.0 mi SW 5.8 mph - N/A   Drizzle
4:47 PM 39.2 °F - 35.6 °F 87% 29.77 in 7.0 mi Calm Calm - N/A   Overcast
5:47 PM 35.6 °F 28.0 °F 33.8 °F 93% 29.76 in 10.0 mi East 10.4 mph - N/A Rain Light Rain
6:47 PM 37.4 °F 32.1 °F 33.8 °F 87% 29.72 in 7.0 mi SSE 6.9 mph - N/A Rain Light Rain
7:47 PM 35.6 °F 26.6 °F 33.8 °F 93% 29.70 in 2.0 mi SSW 13.8 mph 24.2 mph N/A Snow Light Snow
8:47 PM 35.6 °F - 30.2 °F 81% 29.70 in 7.0 mi Calm Calm - N/A   Overcast
9:47 PM 33.8 °F 26.4 °F 30.2 °F 87% 29.70 in 7.0 mi ESE 9.2 mph - N/A   Overcast
10:15 PM 33.8 °F 25.3 °F 28.4 °F 81% 29.72 in 10.0 mi WSW 11.5 mph 16.1 mph N/A   Overcast
10:35 PM 32.0 °F 24.2 °F 28.4 °F 87% 29.73 in 2.0 mi WSW 9.2 mph 18.4 mph N/A Snow Light Snow
10:47 PM 33.8 °F 29.6 °F 28.4 °F 81% 29.73 in 5.0 mi WSW 4.6 mph - N/A Snow Light Snow
10:55 PM 32.0 °F 26.4 °F 30.2 °F 93% 29.73 in 2.0 mi West 5.8 mph - N/A Snow Light Snow
11:15 PM 32.0 °F 24.8 °F 28.4 °F 87% 29.74 in 10.0 mi WSW 8.1 mph - N/A   Scattered Clouds
11:35 PM 32.0 °F 24.8 °F 26.6 °F 80% 29.76 in 10.0 mi WNW 8.1 mph 12.7 mph N/A   Scattered Clouds
11:55 PM 32.0 °F 22.1 °F 26.6 °F 80% 29.77 in 7.0 mi West 13.8 mph 19.6 mph N/A   Mostly Cloudy